DateTimeUTC,F1_A11,F1_S11,BsB_S11,BsG_S11,BsR_S11,BbsB_S11,BbsG_S11,BbsR_S11,BaB_A11,BaG_A11,BaR_A11,Tu_S11,T_S11,Uu_S11,U_S11,P_S11,T1_A11
2021-07-09T01:00:00Z,00000200,20000000,,,,,,,0000.20,-000.08,0000.20,18.0,24.8,02.5,01.7,0665.4,31.0
2021-07-09T01:01:00Z,00000200,20000000,,,,,,,-000.07,-000.21,0000.04,18.0,24.9,02.3,01.5,0665.4,31.0
2021-07-09T01:02:00Z,00000200,20000000,,,,,,,-000.37,-000.09,-000.27,17.9,24.8,02.3,01.5,0665.4,31.0
2021-07-09T01:03:00Z,00000200,60000000,,,,,,,0000.22,0000.16,0000.01,17.9,24.8,02.3,01.5,0665.4,31.0
2021-07-09T01:04:00Z,00000200,40000000,-000.19,0000.05,0000.19,0000.25,-000.11,0000.03,0000.16,0000.23,0000.24,17.9,24.6,02.5,01.7,0666.3,30.9
2021-07-09T01:05:00Z,00000200,00000000,0000.20,-000.32,0000.14,0000.16,-000.09,0000.09,0000.19,-000.11,-000.27,18.0,24.5,02.6,01.7,0666.4,31.0
2021-07-09T01:06:00Z,00000200,00000000,-000.15,0000.34,0000.45,0000.10,0000.12,-000.09,0000.15,0000.12,0000.13,18.0,24.5,02.6,01.7,0666.4,31.0
2021-07-09T01:07:00Z,00000200,00000000,0000.26,0000.06,0000.18,-000.09,-000.13,-000.02,0000.00,0000.12,0000.39,18.1,24.6,02.5,01.7,0666.4,31.0
2021-07-09T01:08:00Z,00000200,00000000,0000.05,-000.07,0000.50,0000.59,-000.22,0000.34,-000.10,0000.09,-000.27,18.2,24.6,02.5,01.7,0666.5,31.0
2021-07-09T01:09:00Z,00000200,00000000,-000.05,-000.10,0000.04,-000.21,-000.34,-000.11,0000.30,-000.00,0000.07,18.3,24.7,02.5,01.7,0666.5,31.0
2021-07-09T01:10:00Z,00000200,00000000,0000.06,-000.00,-000.01,0000.18,0000.09,0000.03,-000.32,-000.21,-000.05,18.4,24.7,02.4,01.7,0666.5,31.0
2021-07-09T01:11:00Z,00000200,00000000,0000.14,0000.01,0000.13,-000.18,0000.16,0000.48,-000.01,-000.15,0000.21,18.4,24.7,02.4,01.6,0666.5,31.0
2021-07-09T01:12:00Z,00000200,00000000,0000.15,-000.20,0000.09,-000.61,0000.24,0000.17,0000.06,0000.07,-000.19,18.3,24.7,02.4,01.6,0666.5,31.0
2021-07-09T01:13:00Z,00000200,00000000,0000.34,0000.17,0000.54,0000.19,0000.15,0000.18,-000.38,-000.15,-000.09,18.2,24.6,02.5,01.7,0666.4,31.0
2021-07-09T01:14:00Z,00000200,00000000,0000.19,0000.25,0000.27,0000.23,0000.20,0000.17,0000.16,0000.32,0000.04,18.2,24.6,02.5,01.7,0666.5,31.0
2021-07-09T01:15:00Z,00000200,00000000,0000.04,-000.18,0000.05,0000.67,-000.08,0000.19,-000.09,-000.17,0000.09,18.1,24.6,02.4,01.6,0666.4,31.0
2021-07-09T01:16:00Z,00000200,00000000,0000.06,-000.01,0000.27,-000.15,-000.05,0000.19,0000.11,0000.08,-000.11,18.1,24.5,02.4,01.6,0666.5,30.9
2021-07-09T01:17:00Z,00000200,00000000,0000.02,-000.12,0000.34,0000.14,0000.14,0000.42,0000.21,-000.35,0000.03,18.0,24.5,02.5,01.7,0666.4,30.9
2021-07-09T01:18:00Z,00000200,00000000,0000.37,-000.03,0000.08,0000.40,-000.11,0000.19,0000.16,0000.34,0000.06,18.0,24.5,02.5,01.7,0666.4,30.9
2021-07-09T01:19:00Z,00000200,00000000,-000.07,0000.08,0000.42,-000.47,-000.25,0000.20,-000.17,-000.11,-000.15,18.0,24.4,02.4,01.6,0666.5,30.9
2021-07-09T01:20:00Z,00000200,00000000,-000.02,0000.24,0000.10,0000.08,0000.02,-000.10,0000.22,0000.25,0000.28,18.0,24.4,02.4,01.6,0666.4,30.9
2021-07-09T01:21:00Z,00000200,00000000,-000.05,-000.01,0000.29,0000.02,0000.01,0000.24,-000.14,0000.22,-000.07,18.0,24.4,02.5,01.7,0666.4,31.0
2021-07-09T01:22:00Z,00000200,00000000,0000.25,0000.13,0000.49,0000.04,-000.17,0000.49,-000.10,-000.14,-000.04,18.1,24.5,02.4,01.6,0666.5,31.0
2021-07-09T01:23:00Z,00000200,00000000,-000.07,-000.00,0000.13,-000.04,-000.29,0000.30,-000.05,0000.10,0000.38,18.2,24.5,02.4,01.6,0666.4,31.0
2021-07-09T01:24:00Z,00000200,00000000,0000.32,0000.07,0000.26,-000.13,0000.18,0000.20,0000.23,0000.08,-000.41,18.3,24.6,02.3,01.6,0666.5,31.0
2021-07-09T01:25:00Z,00000200,00000000,0000.60,-000.10,0000.16,0000.40,0000.04,-000.01,-000.23,-000.18,0000.21,18.3,24.6,02.3,01.6,0666.5,31.0
2021-07-09T01:26:00Z,00000200,00000000,-000.16,-000.05,0000.32,-000.43,0000.09,-000.01,-000.05,-000.08,-000.10,18.3,24.6,02.3,01.5,0666.5,31.0
2021-07-09T01:27:00Z,00000200,00000000,0000.35,0000.01,0000.27,0000.06,0000.18,0000.26,0000.42,-000.16,0000.01,18.2,24.6,02.2,01.5,0666.5,31.0
2021-07-09T01:28:00Z,00000200,00000000,0000.54,-000.01,-000.01,0000.04,0000.04,0000.17,-000.39,0000.09,0000.03,18.2,24.5,02.1,01.4,0666.6,31.0
2021-07-09T01:29:00Z,00000200,00000000,-000.65,0000.05,0000.11,0000.29,0000.04,0000.03,-000.11,0000.03,0000.05,18.1,24.5,02.2,01.5,0666.5,31.0
2021-07-09T01:30:00Z,00000200,00000000,0000.42,-000.21,0000.33,0000.09,-000.10,0000.15,0000.09,0000.14,-000.33,18.0,24.5,02.2,01.5,0666.5,30.9
2021-07-09T01:31:00Z,00000200,00000000,0000.42,-000.02,0000.46,-000.31,0000.23,-000.04,0000.06,-000.59,0000.03,18.0,24.5,02.2,01.5,0666.6,31.0
2021-07-09T01:32:00Z,00000200,00000000,0000.30,0000.21,0000.10,0000.31,-000.17,0000.15,-000.20,0000.35,0000.26,17.9,24.4,02.2,01.5,0666.6,30.9
2021-07-09T01:33:00Z,00000200,00000000,0000.90,-000.05,0000.28,0000.36,0000.09,0000.10,0000.13,-000.17,0000.03,17.9,24.4,02.2,01.5,0666.6,30.9
2021-07-09T01:34:00Z,00000200,00000000,0000.09,0000.24,0000.18,0000.03,0000.09,0000.17,0000.06,0000.25,-000.12,17.8,24.4,02.3,01.5,0666.6,30.9
2021-07-09T01:35:00Z,00000200,00000000,-000.15,-000.44,0000.30,-000.25,0000.15,-000.07,0000.40,-000.06,0000.10,17.9,24.3,02.2,01.5,0666.6,30.9
2021-07-09T01:36:00Z,00000200,00000000,-000.40,-000.11,0000.22,-000.02,0000.02,0000.21,0000.05,0000.40,0000.19,17.9,24.4,02.2,01.5,0666.6,31.0
2021-07-09T01:37:00Z,00000200,00000000,0000.08,-000.16,0000.07,-000.25,0000.20,0000.02,0000.18,-000.31,-000.11,18.0,24.4,02.2,01.5,0666.6,31.0
2021-07-09T01:38:00Z,00000200,00000000,0000.49,0000.19,0000.32,0000.45,-000.06,0000.23,-000.22,0000.37,0000.35,18.1,24.4,02.1,01.5,0666.6,31.0
2021-07-09T01:39:00Z,00000200,00000000,0000.02,0000.19,0000.35,-000.23,0000.16,0000.02,0000.19,-000.13,-000.10,18.2,24.5,02.1,01.4,0666.7,31.0
2021-07-09T01:40:00Z,00000200,00010000,0000.29,-000.08,0000.24,0000.23,0000.09,0000.09,-000.38,-000.01,0000.17,18.2,24.5,02.1,01.5,0666.6,31.0
2021-07-09T01:41:00Z,00000200,00000000,-000.09,0000.27,0000.01,0000.15,-000.23,0000.33,0000.23,0000.09,-000.22,18.3,24.5,02.0,01.4,0666.7,31.0
2021-07-09T01:42:00Z,00000200,00000000,-000.91,-000.06,0000.07,-000.25,-000.10,0000.14,-000.36,-000.15,0000.14,18.3,24.5,01.9,01.3,0666.7,31.0
2021-07-09T01:43:00Z,00000200,00000000,-000.04,0000.09,0000.03,0000.35,-000.01,0000.03,0000.38,-000.12,-000.34,18.2,24.5,02.0,01.4,0666.7,31.0
2021-07-09T01:44:00Z,00000200,00000000,-000.03,0000.06,-000.23,0000.15,-000.07,-000.11,-000.37,0000.30,-000.04,18.1,24.5,02.0,01.3,0666.7,31.0
2021-07-09T01:45:00Z,00000200,00000000,-000.33,-000.11,0000.61,0000.77,0000.28,0000.54,-000.12,-000.40,-000.28,18.1,24.4,02.0,01.4,0666.7,31.0
2021-07-09T01:46:00Z,00000200,00000000,-000.28,0000.15,0000.37,-000.61,-000.12,0000.12,0000.39,0000.11,0000.16,18.0,24.4,02.0,01.3,0666.7,31.0
2021-07-09T01:47:00Z,00000200,00000000,0000.39,0000.17,0000.10,-000.59,-000.01,0000.21,-000.25,-000.03,-000.10,17.9,24.4,01.9,01.3,0666.7,30.9
2021-07-09T01:48:00Z,00000200,00000000,-000.43,0000.04,0000.37,-000.03,0000.08,0000.13,0000.10,-000.17,0000.16,17.9,24.4,01.9,01.3,0666.8,30.9
2021-07-09T01:49:00Z,00000200,01000000,0000.02,0000.09,0000.09,-000.28,0000.11,0000.17,0000.11,0000.40,-000.07,17.9,24.3,01.9,01.3,0666.8,30.9
2021-07-09T01:50:00Z,00000200,01000000,0000.03,0000.21,0000.10,-000.31,0000.06,-000.04,0000.25,-000.13,0000.04,17.9,24.3,01.9,01.3,0666.8,30.9
2021-07-09T01:51:00Z,00000200,00000000,-000.17,-000.15,-000.10,0000.31,-000.20,0000.13,0000.10,0000.49,0000.35,17.9,24.4,01.9,01.3,0666.8,30.9
2021-07-09T01:52:00Z,00000200,01000000,-000.32,0000.20,0000.40,0000.17,0000.01,0000.30,-000.11,-000.25,-000.11,18.0,24.4,01.9,01.3,0666.8,31.0
2021-07-09T01:53:00Z,00000200,01000000,0000.16,0000.16,0000.47,-000.15,-000.19,0000.24,0000.01,0000.18,0000.13,18.1,24.4,01.8,01.2,0666.8,31.0
2021-07-09T01:54:00Z,00000200,01000000,0000.30,0000.31,0000.50,-000.00,-000.12,0000.41,-000.03,0000.17,-000.23,18.2,24.4,01.8,01.2,0666.8,31.0
2021-07-09T01:55:00Z,00000200,01000000,-000.34,0000.27,0000.20,-000.29,0000.32,0000.13,-000.10,-000.27,0000.21,18.2,24.5,01.7,01.2,0666.9,31.0
2021-07-09T01:56:00Z,00000200,01000000,-000.24,-000.07,0000.30,-000.38,-000.01,0000.06,0000.15,-000.04,-000.10,18.2,24.5,01.8,01.2,0666.9,31.0
2021-07-09T01:57:00Z,00000200,41000000,,,,,,,0000.06,0000.09,0000.12,18.2,24.5,01.5,01.0,0667.0,31.0
2021-07-09T01:58:00Z,00000200,60000000,,,,,,,-000.47,-000.35,-000.13,17.9,24.6,01.7,01.1,0665.9,31.0
2021-07-09T01:59:00Z,00000200,20000000,,,,,,,-000.24,-000.00,-000.07,17.8,24.7,01.7,01.1,0665.9,31.0
